Zurück zum Katalog

KUIPER-00133

AktivKommunikationLEO
NORAD 65764·PAYLOAD·🇺🇸 United States

Gestartet Sep 25, 2025 von Cape Canaveral Space Force Station

Loading…

Nächste Überflüge (nächste 24 Stunden)

TLE

AktuellSource: CelesTrak SupGP

Epoche: Sep 14, 2026, 23:15 UTC

1 65764C 25217C   26257.96893519  .00002483  00000+0  32509-3 0  2572
2 65764  51.9028 296.1942 0000537  83.0355 151.9857 14.79920304    13

Verfolge KUIPER-00133 in Echtzeit mit AllMySat

Download on the App Store